Date,MW,Mvar
01/01/2018 00:15,4.5,-3.03
01/01/2018 00:30,4.54,-3
01/01/2018 00:45,4.51,-3.03
01/01/2018 01:00,4.48,-3.1
01/01/2018 01:15,4.44,-3.07
01/01/2018 01:30,4.48,-2.99
01/01/2018 01:45,4.35,-3.01
01/01/2018 02:00,4.35,-3.01
01/01/2018 02:15,4.41,-3.05
01/01/2018 02:30,4.31,-3.14
01/01/2018 02:45,4.34,-3.14
01/01/2018 03:00,4.33,-3.11
01/01/2018 03:15,4.32,-3.08
01/01/2018 03:30,4.28,-3.09
01/01/2018 03:45,4.23,-3.11
01/01/2018 04:00,4.22,-3.14
01/01/2018 04:15,4.25,-3.14
01/01/2018 04:30,4.15,-3.18
01/01/2018 04:45,4.16,-3.17
01/01/2018 05:00,4.25,-3.15
01/01/2018 05:15,4.25,-3.14
01/01/2018 05:30,4.13,-3.17
01/01/2018 05:45,4.24,-3.12
01/01/2018 06:00,4.12,-3.2
01/01/2018 06:15,3.92,-3.3
01/01/2018 06:30,3.83,-3.39
01/01/2018 06:45,3.87,-3.37
01/01/2018 07:00,3.7,-3.46
01/01/2018 07:15,3.73,-3.45
01/01/2018 07:30,3.87,-3.29
01/01/2018 07:45,3.94,-3.3
01/01/2018 08:00,4.14,-3.1
01/01/2018 08:15,4.19,-3
01/01/2018 08:30,4.43,-2.6
01/01/2018 08:45,4.37,-2.72
01/01/2018 09:00,4.15,-2.72
01/01/2018 09:15,4.14,-2.65
01/01/2018 09:30,4.09,-2.66
01/01/2018 09:45,4.12,-2.64
01/01/2018 10:00,4.13,-2.6
01/01/2018 10:15,4.07,-2.65
01/01/2018 10:30,4.22,-2.57
01/01/2018 10:45,4.17,-2.53
01/01/2018 11:00,3.5,-2.66
01/01/2018 11:15,3.2,-3.14
01/01/2018 11:30,2.86,-3.26
01/01/2018 11:45,2.87,-3.24
01/01/2018 12:00,3.24,-2.89
01/01/2018 12:15,3.63,-2.66
01/01/2018 12:30,4.02,-2.5
01/01/2018 12:45,4.06,-2.53
01/01/2018 13:00,4.02,-2.49
01/01/2018 13:15,4.12,-2.36
01/01/2018 13:30,4.02,-2.27
01/01/2018 13:45,3.92,-2.3
01/01/2018 14:00,4.36,-2.23
01/01/2018 14:15,4.36,-2.61
01/01/2018 14:30,4.41,-2.67
01/01/2018 14:45,4.66,-2.43
01/01/2018 15:00,4.67,-2.1
01/01/2018 15:15,4.7,-2.25
01/01/2018 15:30,4.83,-2.18
01/01/2018 15:45,4.78,-2.14
01/01/2018 16:00,4.93,-2.09
01/01/2018 16:15,4.97,-2.02
01/01/2018 16:30,5.12,-2.05
01/01/2018 16:45,5.19,-2.05
01/01/2018 17:00,5.14,-2.07
01/01/2018 17:15,5.02,-2.03
01/01/2018 17:30,4.85,-2.4
01/01/2018 17:45,4.68,-2.53
01/01/2018 18:00,4.66,-2.57
01/01/2018 18:15,4.72,-2.59
01/01/2018 18:30,4.34,-2.73
01/01/2018 18:45,4.33,-2.74
01/01/2018 19:00,4.34,-2.76
01/01/2018 19:15,4.36,-2.77
01/01/2018 19:30,4.39,-2.77
01/01/2018 19:45,4.28,-2.89
01/01/2018 20:00,4.23,-2.91
01/01/2018 20:15,4.21,-2.93
01/01/2018 20:30,4.12,-2.93
01/01/2018 20:45,4.06,-2.97
01/01/2018 21:00,3.86,-3.05
01/01/2018 21:15,4.1,-2.95
01/01/2018 21:30,4.2,-2.98
01/01/2018 21:45,4.33,-2.95
01/01/2018 22:00,4.38,-2.98
01/01/2018 22:15,4.4,-2.96
01/01/2018 22:30,4.39,-2.95
01/01/2018 22:45,4.39,-2.93
01/01/2018 23:00,4.49,-2.9
01/01/2018 23:15,4.58,-2.84
01/01/2018 23:30,4.65,-2.84
01/01/2018 23:45,4.74,-2.8
02/01/2018 00:00,4.93,-2.66
02/01/2018 00:15,5,-2.63
02/01/2018 00:30,5.32,-2.38
02/01/2018 00:45,5.42,-2.23
02/01/2018 01:00,5.41,-2.28
02/01/2018 01:15,5.49,-2.24
02/01/2018 01:30,5.57,-2.22
02/01/2018 01:45,5.56,-2.2
02/01/2018 02:00,5.75,-1.95
02/01/2018 02:15,5.72,-2.03
02/01/2018 02:30,5.57,-2.04
02/01/2018 02:45,5.55,-2.03
02/01/2018 03:00,5.68,-2.04
02/01/2018 03:15,5.61,-2.07
02/01/2018 03:30,5.51,-2.11
02/01/2018 03:45,5.43,-2.16
02/01/2018 04:00,5.35,-2.28
02/01/2018 04:15,5.34,-2.29
02/01/2018 04:30,5.44,-2.26
02/01/2018 04:45,5.51,-2.25
02/01/2018 05:00,5.41,-2.28
02/01/2018 05:15,5.35,-2.35
02/01/2018 05:30,5.39,-2.38
02/01/2018 05:45,5.39,-2.41
02/01/2018 06:00,5.19,-2.55
02/01/2018 06:15,4.99,-2.63
02/01/2018 06:30,5.02,-2.55
02/01/2018 06:45,5.16,-2.42
02/01/2018 07:00,5.2,-2.47
02/01/2018 07:15,5.29,-2.44
02/01/2018 07:30,5.13,-2.45
02/01/2018 07:45,5.4,-2.31
02/01/2018 08:00,5.47,-2.18
02/01/2018 08:15,5.46,-2.21
02/01/2018 08:30,5.5,-2.2
02/01/2018 08:45,5.55,-2.14
02/01/2018 09:00,5.69,-2.08
02/01/2018 09:15,5.81,-1.92
02/01/2018 09:30,5.2,-1.96
02/01/2018 09:45,5.19,-1.86
02/01/2018 10:00,5.21,-1.89
02/01/2018 10:15,5.07,-1.94
02/01/2018 10:30,5.12,-1.87
02/01/2018 10:45,5.22,-1.8
02/01/2018 11:00,5.37,-1.75
02/01/2018 11:15,5.5,-1.69
02/01/2018 11:30,5.78,-1.48
02/01/2018 11:45,6.08,-1.22
02/01/2018 12:00,6.15,-1.05
02/01/2018 12:15,6.23,-1.05
02/01/2018 12:30,6.6,-1.01
02/01/2018 12:45,6.67,-1.1
02/01/2018 13:00,6.43,-1.18
02/01/2018 13:15,6.11,-1.23
02/01/2018 13:30,6.2,-1.14
02/01/2018 13:45,6.17,-1.03
02/01/2018 14:00,6.44,-1
02/01/2018 14:15,6.67,-1.12
02/01/2018 14:30,6.35,-1.29
02/01/2018 14:45,6.11,-1.37
02/01/2018 15:00,6.41,-1.28
02/01/2018 15:15,6.45,-1.22
02/01/2018 15:30,6.37,-1.13
02/01/2018 15:45,6.26,-1.07
02/01/2018 16:00,6.43,-1.03
02/01/2018 16:15,6.23,-1.05
02/01/2018 16:30,5.98,-1.23
02/01/2018 16:45,6.33,-1.12
02/01/2018 17:00,6.24,-1.05
02/01/2018 17:15,5.74,-1.14
02/01/2018 17:30,5.65,-1.14
02/01/2018 17:45,5.78,-1.19
02/01/2018 18:00,5.68,-1.15
02/01/2018 18:15,5.61,-1.25
02/01/2018 18:30,5.59,-1.27
02/01/2018 18:45,5.47,-1.49
02/01/2018 19:00,5.42,-1.48
02/01/2018 19:15,5.58,-1.45
02/01/2018 19:30,5.76,-1.32
02/01/2018 19:45,5.77,-1.31
02/01/2018 20:00,5.99,-1.22
02/01/2018 20:15,6.01,-1.36
02/01/2018 20:30,6.01,-1.44
02/01/2018 20:45,5.86,-1.67
02/01/2018 21:00,5.9,-1.53
02/01/2018 21:15,6.06,-1.5
02/01/2018 21:30,6.06,-1.56
02/01/2018 21:45,6.08,-1.6
02/01/2018 22:00,6.06,-1.67
02/01/2018 22:15,5.86,-1.68
02/01/2018 22:30,5.8,-1.75
02/01/2018 22:45,5.98,-1.58
02/01/2018 23:00,5.89,-1.62
02/01/2018 23:15,5.95,-1.55
02/01/2018 23:30,5.98,-1.6
02/01/2018 23:45,5.9,-1.62
03/01/2018 00:00,5.87,-1.7
03/01/2018 00:15,5.93,-1.7
03/01/2018 00:30,5.85,-1.81
03/01/2018 00:45,5.95,-1.74
03/01/2018 01:00,5.74,-1.96
03/01/2018 01:15,5.67,-1.97
03/01/2018 01:30,5.67,-1.94
03/01/2018 01:45,5.5,-2.07
03/01/2018 02:00,5.41,-2.17
03/01/2018 02:15,5.47,-2.1
03/01/2018 02:30,5.45,-2.06
03/01/2018 02:45,5.36,-2.08
03/01/2018 03:00,5.3,-2.14
03/01/2018 03:15,5.23,-2.12
03/01/2018 03:30,5.05,-2.14
03/01/2018 03:45,5.13,-2.1
03/01/2018 04:00,5.17,-2.07
03/01/2018 04:15,5.2,-1.99
03/01/2018 04:30,5.14,-2.1
03/01/2018 04:45,5.44,-2.07
03/01/2018 05:00,5.29,-2.13
03/01/2018 05:15,5.08,-2.14
03/01/2018 05:30,5.35,-2.04
03/01/2018 05:45,5.57,-2.01
03/01/2018 06:00,5.2,-2.12
03/01/2018 06:15,4.93,-2.06
03/01/2018 06:30,4.96,-2.15
03/01/2018 06:45,5.04,-2.13
03/01/2018 07:00,5.05,-2.05
03/01/2018 07:15,5.13,-1.97
03/01/2018 07:30,5.11,-1.94
03/01/2018 07:45,4.8,-2.05
03/01/2018 08:00,4.96,-1.94
03/01/2018 08:15,5.24,-1.91
03/01/2018 08:30,5.64,-1.52
03/01/2018 08:45,5.82,-1.2
03/01/2018 09:00,5.93,-1.03
03/01/2018 09:15,6.24,-0.94
03/01/2018 09:30,6.14,-1.13
03/01/2018 09:45,6.6,-0.97
03/01/2018 10:00,6.46,-1.08
03/01/2018 10:15,6.23,-1.02
03/01/2018 10:30,6.5,-1.02
03/01/2018 10:45,6.29,-0.89
03/01/2018 11:00,6.22,-0.96
03/01/2018 11:15,6.13,-0.96
03/01/2018 11:30,5.97,-0.96
03/01/2018 11:45,6.3,-0.8
03/01/2018 12:00,6.58,-0.72
03/01/2018 12:15,6.42,-0.74
03/01/2018 12:30,6.28,-0.79
03/01/2018 12:45,6.14,-0.86
03/01/2018 13:00,6.14,-0.94
03/01/2018 13:15,6.17,-0.81
03/01/2018 13:30,6.32,-0.66
03/01/2018 13:45,6.2,-0.77
03/01/2018 14:00,6.2,-0.84
03/01/2018 14:15,6.02,-0.97
03/01/2018 14:30,6.02,-0.98
03/01/2018 14:45,5.97,-1.06
03/01/2018 15:00,6.14,-1.06
03/01/2018 15:15,5.93,-1.29
03/01/2018 15:30,5.95,-1.12
03/01/2018 15:45,5.85,-1.13
03/01/2018 16:00,5.57,-1.18
03/01/2018 16:15,5.63,-1.05
03/01/2018 16:30,5.57,-1.17
03/01/2018 16:45,5.75,-1.13
03/01/2018 17:00,5.85,-1.08
03/01/2018 17:15,5.72,-1.14
03/01/2018 17:30,5.72,-0.98
03/01/2018 17:45,5.87,-0.75
03/01/2018 18:00,5.74,-0.88
03/01/2018 18:15,5.73,-0.83
03/01/2018 18:30,5.73,-0.97
03/01/2018 18:45,5.83,-0.92
03/01/2018 19:00,5.81,-0.98
03/01/2018 19:15,5.66,-1.02
03/01/2018 19:30,5.82,-1.26
03/01/2018 19:45,5.92,-1.23
03/01/2018 20:00,6.04,-1.24
03/01/2018 20:15,5.98,-1.34
03/01/2018 20:30,5.98,-1.52
03/01/2018 20:45,6.07,-1.45
03/01/2018 21:00,5.89,-1.46
03/01/2018 21:15,6.05,-1.36
03/01/2018 21:30,6.22,-1.33
03/01/2018 21:45,6.28,-1.34
03/01/2018 22:00,6.16,-1.46
03/01/2018 22:15,6.17,-1.4
03/01/2018 22:30,6.16,-1.43
03/01/2018 22:45,6.07,-1.49
03/01/2018 23:00,6.03,-1.56
03/01/2018 23:15,6,-1.63
03/01/2018 23:30,5.79,-1.7
03/01/2018 23:45,5.71,-1.81
04/01/2018 00:00,5.64,-1.81
04/01/2018 00:15,5.86,-1.74
04/01/2018 00:30,5.76,-1.92
04/01/2018 00:45,5.78,-1.93
04/01/2018 01:00,5.67,-1.99
04/01/2018 01:15,5.59,-2
04/01/2018 01:30,5.7,-1.93
04/01/2018 01:45,5.58,-1.97
04/01/2018 02:00,5.52,-1.99
04/01/2018 02:15,5.49,-2.06
04/01/2018 02:30,5.41,-2
04/01/2018 02:45,5.38,-1.98
04/01/2018 03:00,5.37,-2.01
04/01/2018 03:15,5.43,-1.92
04/01/2018 03:30,5.35,-2.01
04/01/2018 03:45,5.41,-2.07
04/01/2018 04:00,5.2,-2.09
04/01/2018 04:15,4.8,-2.07
04/01/2018 04:30,4.88,-2.09
04/01/2018 04:45,5.05,-1.98
04/01/2018 05:00,5.09,-2.02
04/01/2018 05:15,5.14,-1.95
04/01/2018 05:30,5.11,-1.97
04/01/2018 05:45,5.05,-2.06
04/01/2018 06:00,4.86,-2.27
04/01/2018 06:15,4.53,-2.37
04/01/2018 06:30,4.59,-2.33
04/01/2018 06:45,4.71,-2.21
04/01/2018 07:00,4.63,-2.27
04/01/2018 07:15,4.96,-2.09
04/01/2018 07:30,5.2,-1.92
04/01/2018 07:45,5.62,-1.63
04/01/2018 08:00,5.68,-1.64
04/01/2018 08:15,5.4,-1.77
04/01/2018 08:30,5.62,-1.67
04/01/2018 08:45,5.96,-1.43
04/01/2018 09:00,5.89,-1.36
04/01/2018 09:15,5.93,-1.29
04/01/2018 09:30,6.21,-1.18
04/01/2018 09:45,6.35,-1.11
04/01/2018 10:00,6.04,-1.12
04/01/2018 10:15,5.99,-1.13
04/01/2018 10:30,5.97,-1.15
04/01/2018 10:45,6.11,-0.97
04/01/2018 11:00,5.98,-1.14
04/01/2018 11:15,6.13,-1.06
04/01/2018 11:30,6.36,-0.8
04/01/2018 11:45,6.7,-0.72
04/01/2018 12:00,6.55,-0.92
04/01/2018 12:15,6.52,-0.89
04/01/2018 12:30,6.28,-1.04
04/01/2018 12:45,6.03,-1.33
04/01/2018 13:00,5.9,-1.3
04/01/2018 13:15,5.83,-1.28
04/01/2018 13:30,6.2,-0.83
04/01/2018 13:45,6.43,-0.68
04/01/2018 14:00,6.23,-0.79
04/01/2018 14:15,6.15,-0.8
04/01/2018 14:30,6.07,-0.69
04/01/2018 14:45,6.13,-0.63
04/01/2018 15:00,6.11,-0.51
04/01/2018 15:15,6.02,-0.48
04/01/2018 15:30,6,-0.89
04/01/2018 15:45,5.72,-1.35
04/01/2018 16:00,5.52,-1.48
04/01/2018 16:15,6.04,-1.05
04/01/2018 16:30,6.39,-0.95
04/01/2018 16:45,6,-1.18
04/01/2018 17:00,5.83,-1.4
04/01/2018 17:15,5.73,-1.47
04/01/2018 17:30,5.45,-1.49
04/01/2018 17:45,5.55,-1.47
04/01/2018 18:00,5.56,-1.42
04/01/2018 18:15,5.75,-1.39
04/01/2018 18:30,5.92,-1.3
04/01/2018 18:45,6.07,-1.35
04/01/2018 19:00,5.82,-1.45
04/01/2018 19:15,5.77,-1.55
04/01/2018 19:30,5.63,-2
04/01/2018 19:45,5.57,-2.03
04/01/2018 20:00,5.53,-1.98
04/01/2018 20:15,5.65,-2
04/01/2018 20:30,5.58,-2.19
04/01/2018 20:45,5.38,-2.33
04/01/2018 21:00,5.23,-2.5
04/01/2018 21:15,5.08,-2.62
04/01/2018 21:30,5.25,-2.58
04/01/2018 21:45,5.53,-2.4
04/01/2018 22:00,5.29,-2.65
04/01/2018 22:15,5.23,-2.68
04/01/2018 22:30,5.23,-2.71
04/01/2018 22:45,5.13,-2.7
04/01/2018 23:00,5.2,-2.69
04/01/2018 23:15,5.23,-2.7
04/01/2018 23:30,5.07,-2.79
04/01/2018 23:45,4.94,-2.84
05/01/2018 00:00,4.86,-2.88
05/01/2018 00:15,4.9,-2.8
05/01/2018 00:30,4.85,-2.87
05/01/2018 00:45,4.86,-2.89
05/01/2018 01:00,4.8,-2.92
05/01/2018 01:15,4.7,-2.97
05/01/2018 01:30,4.64,-2.97
05/01/2018 01:45,4.59,-2.97
05/01/2018 02:00,4.74,-2.95
05/01/2018 02:15,4.56,-3.04
05/01/2018 02:30,4.05,-3.14
05/01/2018 02:45,3.99,-3.18
05/01/2018 03:00,3.99,-3.15
05/01/2018 03:15,4.01,-3.07
05/01/2018 03:30,4.08,-2.98
05/01/2018 03:45,4.05,-3.04
05/01/2018 04:00,4.05,-3.05
05/01/2018 04:15,4.1,-3.03
05/01/2018 04:30,4.14,-3.02
05/01/2018 04:45,4.18,-2.96
05/01/2018 05:00,4.17,-3.02
05/01/2018 05:15,4.35,-2.89
05/01/2018 05:30,4.57,-2.86
05/01/2018 05:45,4.72,-2.75
05/01/2018 06:00,5.15,-2.66
05/01/2018 06:15,5.1,-2.46
05/01/2018 06:30,5.14,-2.64
05/01/2018 06:45,5.65,-2.82
05/01/2018 07:00,5.8,-2.71
05/01/2018 07:15,5.62,-2.9
05/01/2018 07:30,5.63,-2.85
05/01/2018 07:45,5.5,-2.8
05/01/2018 08:00,5.28,-2.63
05/01/2018 08:15,5.52,-2.52
05/01/2018 08:30,5.69,-2.26
05/01/2018 08:45,6.46,-1.78
05/01/2018 09:00,6.63,-1.58
05/01/2018 09:15,6.38,-1.65
05/01/2018 09:30,6.44,-1.55
05/01/2018 09:45,6.34,-1.24
05/01/2018 10:00,6.4,-1.2
05/01/2018 10:15,6.36,-1.12
05/01/2018 10:30,6.32,-1.02
05/01/2018 10:45,6.3,-0.91
05/01/2018 11:00,6.37,-0.97
05/01/2018 11:15,6.08,-1.36
05/01/2018 11:30,6.1,-1.38
05/01/2018 11:45,6.22,-1.32
05/01/2018 12:00,6.31,-1.31
05/01/2018 12:15,6.46,-1.05
05/01/2018 12:30,6.38,-1.16
05/01/2018 12:45,5.81,-1.41
05/01/2018 13:00,5.61,-1.45
05/01/2018 13:15,5.81,-1.32
05/01/2018 13:30,5.82,-1.22
05/01/2018 13:45,5.91,-1.19
05/01/2018 14:00,5.79,-1.23
05/01/2018 14:15,5.58,-1.4
05/01/2018 14:30,5.55,-1.58
05/01/2018 14:45,5.44,-1.62
05/01/2018 15:00,5.46,-1.62
05/01/2018 15:15,5.43,-1.68
05/01/2018 15:30,5.45,-1.45
05/01/2018 15:45,5.75,-1.37
05/01/2018 16:00,5.99,-1.19
05/01/2018 16:15,6.09,-1.15
05/01/2018 16:30,6.26,-1.08
05/01/2018 16:45,6.36,-1.02
05/01/2018 17:00,6.32,-1.06
05/01/2018 17:15,6.38,-0.96
05/01/2018 17:30,6.47,-1
05/01/2018 17:45,6.39,-1.05
05/01/2018 18:00,6.47,-1
05/01/2018 18:15,6.64,-1.05
05/01/2018 18:30,6.81,-0.8
05/01/2018 18:45,6.87,-0.85
05/01/2018 19:00,6.64,-0.94
05/01/2018 19:15,6.47,-1
05/01/2018 19:30,6.28,-1.47
05/01/2018 19:45,6.21,-1.59
05/01/2018 20:00,6.21,-1.64
05/01/2018 20:15,6.22,-1.74
05/01/2018 20:30,6.24,-1.75
05/01/2018 20:45,6.13,-1.85
05/01/2018 21:00,6.11,-1.92
05/01/2018 21:15,6.15,-1.88
05/01/2018 21:30,5.81,-2.17
05/01/2018 21:45,5.73,-2.18
05/01/2018 22:00,5.67,-2.19
05/01/2018 22:15,5.62,-2.22
05/01/2018 22:30,5.61,-2.18
05/01/2018 22:45,5.55,-2.25
05/01/2018 23:00,5.51,-2.3
05/01/2018 23:15,5.98,-2.13
05/01/2018 23:30,5.56,-2.29
05/01/2018 23:45,5.32,-2.3
06/01/2018 00:00,5.32,-2.28
06/01/2018 00:15,5.33,-2.29
06/01/2018 00:30,5.21,-2.38
06/01/2018 00:45,5.51,-2.22
06/01/2018 01:00,5.53,-2.23
06/01/2018 01:15,5.37,-2.31
06/01/2018 01:30,5.36,-2.31
06/01/2018 01:45,5.34,-2.26
06/01/2018 02:00,5.19,-2.36
06/01/2018 02:15,4.94,-2.49
06/01/2018 02:30,4.75,-2.74
06/01/2018 02:45,4.92,-2.5
06/01/2018 03:00,5.11,-2.38
06/01/2018 03:15,5.37,-2.25
06/01/2018 03:30,5.52,-2.24
06/01/2018 03:45,5.68,-2.17
06/01/2018 04:00,5.63,-2.22
06/01/2018 04:15,5.68,-2.16
06/01/2018 04:30,5.52,-2.32
06/01/2018 04:45,5.54,-2.37
06/01/2018 05:00,5.51,-2.34
06/01/2018 05:15,5.41,-2.41
06/01/2018 05:30,5.32,-2.48
06/01/2018 05:45,5.25,-2.53
06/01/2018 06:00,5.2,-2.6
06/01/2018 06:15,4.96,-2.75
06/01/2018 06:30,4.82,-2.83
06/01/2018 06:45,4.83,-2.76
06/01/2018 07:00,4.7,-2.83
06/01/2018 07:15,4.6,-2.81
06/01/2018 07:30,4.71,-2.79
06/01/2018 07:45,4.72,-2.77
06/01/2018 08:00,4.74,-2.64
06/01/2018 08:15,4.68,-2.66
06/01/2018 08:30,5.1,-2.34
06/01/2018 08:45,5.14,-2.17
06/01/2018 09:00,5.43,-2.07
06/01/2018 09:15,5.48,-2.03
06/01/2018 09:30,5.46,-2.07
06/01/2018 09:45,5.6,-1.99
06/01/2018 10:00,5.8,-1.89
06/01/2018 10:15,5.64,-2.05
06/01/2018 10:30,5.36,-2.15
06/01/2018 10:45,5.35,-2.22
06/01/2018 11:00,5.53,-2.21
06/01/2018 11:15,5.63,-2.16
06/01/2018 11:30,5.97,-1.82
06/01/2018 11:45,6.18,-1.68
06/01/2018 12:00,6.23,-1.59
06/01/2018 12:15,6.55,-1.41
06/01/2018 12:30,6.41,-1.54
06/01/2018 12:45,6.17,-1.68
06/01/2018 13:00,5.96,-1.79
06/01/2018 13:15,6.06,-1.56
06/01/2018 13:30,6.06,-1.58
06/01/2018 13:45,6.08,-1.59
06/01/2018 14:00,5.91,-1.65
06/01/2018 14:15,6.05,-1.65
06/01/2018 14:30,6.28,-1.59
06/01/2018 14:45,6.32,-1.54
06/01/2018 15:00,6.1,-1.68
06/01/2018 15:15,5.7,-2
06/01/2018 15:30,5.85,-1.92
06/01/2018 15:45,5.99,-1.86
06/01/2018 16:00,6.03,-1.88
06/01/2018 16:15,6.03,-1.84
06/01/2018 16:30,6.04,-1.85
06/01/2018 16:45,6.1,-1.78
06/01/2018 17:00,6.01,-1.84
06/01/2018 17:15,6.01,-1.8
06/01/2018 17:30,5.89,-1.96
06/01/2018 17:45,5.61,-2.25
06/01/2018 18:00,5.63,-2.29
06/01/2018 18:15,5.7,-2.31
06/01/2018 18:30,5.65,-2.4
06/01/2018 18:45,5.6,-2.42
06/01/2018 19:00,5.46,-2.51
06/01/2018 19:15,5.6,-2.51
06/01/2018 19:30,5.6,-2.51
06/01/2018 19:45,5.45,-2.64
06/01/2018 20:00,5.48,-2.72
06/01/2018 20:15,5.33,-2.83
06/01/2018 20:30,4.9,-2.9
06/01/2018 20:45,4.9,-2.87
06/01/2018 21:00,4.97,-2.79
06/01/2018 21:15,5.2,-2.61
06/01/2018 21:30,5.3,-2.66
06/01/2018 21:45,5.3,-2.64
06/01/2018 22:00,5.31,-2.63
06/01/2018 22:15,5.29,-2.64
06/01/2018 22:30,5.27,-2.59
06/01/2018 22:45,5.16,-2.66
06/01/2018 23:00,5.14,-2.68
06/01/2018 23:15,5.1,-2.67
06/01/2018 23:30,5.05,-2.72
06/01/2018 23:45,4.99,-2.74
07/01/2018 00:00,4.86,-2.75
07/01/2018 00:15,4.82,-2.71
07/01/2018 00:30,4.87,-2.68
07/01/2018 00:45,4.86,-2.69
07/01/2018 01:00,5.2,-2.54
07/01/2018 01:15,5.29,-2.48
07/01/2018 01:30,5.5,-2.53
07/01/2018 01:45,5.42,-2.6
07/01/2018 02:00,5.41,-2.61
07/01/2018 02:15,5.46,-2.66
07/01/2018 02:30,5.34,-2.73
07/01/2018 02:45,5.3,-2.72
07/01/2018 03:00,5.28,-2.65
07/01/2018 03:15,5.28,-2.66
07/01/2018 03:30,5.19,-2.7
07/01/2018 03:45,5.14,-2.72
07/01/2018 04:00,5.14,-2.73
07/01/2018 04:15,5.11,-2.72
07/01/2018 04:30,5.03,-2.78
07/01/2018 04:45,5.07,-2.73
07/01/2018 05:00,5.02,-2.77
07/01/2018 05:15,5,-2.75
07/01/2018 05:30,5.01,-2.77
07/01/2018 05:45,4.7,-2.9
07/01/2018 06:00,4.46,-3.04
07/01/2018 06:15,4.16,-3.15
07/01/2018 06:30,3.99,-3.25
07/01/2018 06:45,4.05,-3.18
07/01/2018 07:00,4,-3.31
07/01/2018 07:15,4.01,-3.29
07/01/2018 07:30,4.04,-3.28
07/01/2018 07:45,3.98,-3.32
07/01/2018 08:00,4.78,-2.6
07/01/2018 08:15,4.58,-2.73
07/01/2018 08:30,4.37,-2.99
07/01/2018 08:45,4.51,-2.83
07/01/2018 09:00,4.84,-2.42
07/01/2018 09:15,5.35,-1.92
07/01/2018 09:30,5.51,-1.91
07/01/2018 09:45,5.4,-1.85
07/01/2018 10:00,5.55,-1.89
07/01/2018 10:15,5.67,-1.83
07/01/2018 10:30,5.52,-1.89
07/01/2018 10:45,5.55,-1.78
07/01/2018 11:00,5.51,-1.71
07/01/2018 11:15,5.09,-1.9
07/01/2018 11:30,5,-1.82
07/01/2018 11:45,5.15,-1.77
07/01/2018 12:00,5.07,-1.8
07/01/2018 12:15,5.01,-1.92
07/01/2018 12:30,5,-2.04
07/01/2018 12:45,4.66,-2.2
07/01/2018 13:00,4.33,-2.19
07/01/2018 13:15,4.37,-2.21
07/01/2018 13:30,4.17,-2.54
07/01/2018 13:45,4.29,-2.52
07/01/2018 14:00,4.43,-2.55
07/01/2018 14:15,4.26,-2.62
07/01/2018 14:30,4.3,-2.62
07/01/2018 14:45,4.43,-2.41
07/01/2018 15:00,4.67,-2
07/01/2018 15:15,4.6,-2.01
07/01/2018 15:30,4.94,-2
07/01/2018 15:45,4.86,-2.02
07/01/2018 16:00,4.66,-2
07/01/2018 16:15,4.82,-1.74
07/01/2018 16:30,4.94,-1.87
07/01/2018 16:45,5.03,-1.95
07/01/2018 17:00,4.77,-1.99
07/01/2018 17:15,4.51,-2.06
07/01/2018 17:30,3.95,-2.63
07/01/2018 17:45,4.01,-2.6
07/01/2018 18:00,4.09,-2.64
07/01/2018 18:15,4.15,-2.67
07/01/2018 18:30,4.23,-2.59
07/01/2018 18:45,4.27,-2.57
07/01/2018 19:00,4.15,-2.61
07/01/2018 19:15,4.04,-2.67
07/01/2018 19:30,4.23,-2.64
07/01/2018 19:45,4.19,-2.59
07/01/2018 20:00,4.6,-2.54
07/01/2018 20:15,4.62,-2.63
07/01/2018 20:30,4.02,-2.93
07/01/2018 20:45,3.79,-3.12
07/01/2018 21:00,3.85,-3.02
07/01/2018 21:15,4.13,-2.88
07/01/2018 21:30,4.15,-2.89
07/01/2018 21:45,4.17,-2.88
07/01/2018 22:00,4.15,-2.93
07/01/2018 22:15,4.22,-2.82
07/01/2018 22:30,4.13,-2.91
07/01/2018 22:45,4.56,-2.79
07/01/2018 23:00,4.69,-2.81
07/01/2018 23:15,4.86,-2.84
07/01/2018 23:30,4.99,-2.79
07/01/2018 23:45,4.97,-2.8
08/01/2018 00:00,4.99,-2.71
08/01/2018 00:15,4.89,-2.71
08/01/2018 00:30,4.93,-2.7
08/01/2018 00:45,4.84,-2.83
08/01/2018 01:00,4.75,-2.96
08/01/2018 01:15,4.72,-2.97
08/01/2018 01:30,4.7,-2.94
08/01/2018 01:45,4.65,-2.93
08/01/2018 02:00,4.66,-2.98
08/01/2018 02:15,4.67,-3
08/01/2018 02:30,4.69,-2.98
08/01/2018 02:45,4.63,-2.88
08/01/2018 03:00,4.63,-2.84
08/01/2018 03:15,4.72,-2.78
08/01/2018 03:30,4.81,-2.75
08/01/2018 03:45,4.74,-2.82
08/01/2018 04:00,4.73,-2.79
08/01/2018 04:15,4.79,-2.7
08/01/2018 04:30,4.76,-2.84
08/01/2018 04:45,4.81,-2.88
08/01/2018 05:00,4.74,-2.94
08/01/2018 05:15,4.75,-2.9
08/01/2018 05:30,4.76,-2.87
08/01/2018 05:45,4.84,-2.84
08/01/2018 06:00,4.81,-2.76
08/01/2018 06:15,4.84,-2.73
08/01/2018 06:30,5.11,-2.69
08/01/2018 06:45,5.31,-2.55
08/01/2018 07:00,5.47,-2.57
08/01/2018 07:15,5.43,-2.5
08/01/2018 07:30,5.22,-2.64
08/01/2018 07:45,5.3,-2.59
08/01/2018 08:00,5.71,-2.3
08/01/2018 08:15,6.83,-1.77
08/01/2018 08:30,7.17,-1.42
08/01/2018 08:45,7.23,-1.32
08/01/2018 09:00,7.13,-1.43
08/01/2018 09:15,7.18,-1.34
08/01/2018 09:30,7.15,-1.27
08/01/2018 09:45,7.14,-1.09
08/01/2018 10:00,7.5,-0.93
08/01/2018 10:15,7.36,-1.05
08/01/2018 10:30,7.07,-0.9
08/01/2018 10:45,7.33,-0.48
08/01/2018 11:00,7.4,-0.24
08/01/2018 11:15,7.75,0.02
08/01/2018 11:30,8.02,0.25
08/01/2018 11:45,7.97,0.27
08/01/2018 12:00,8.43,0.32
08/01/2018 12:15,7.91,0.2
08/01/2018 12:30,8.27,0.18
08/01/2018 12:45,8.09,0.05
08/01/2018 13:00,7.97,0.12
08/01/2018 13:15,8,0.23
08/01/2018 13:30,7.88,0.18
08/01/2018 13:45,8.07,0.17
08/01/2018 14:00,7.75,-0.14
08/01/2018 14:15,7.75,-0.29
08/01/2018 14:30,7.31,-0.52
08/01/2018 14:45,6.63,-0.64
08/01/2018 15:00,6.62,-0.61
08/01/2018 15:15,6.72,-0.71
08/01/2018 15:30,6.61,-0.73
08/01/2018 15:45,6.51,-0.7
08/01/2018 16:00,6.56,-0.71
08/01/2018 16:15,6.62,-0.67
08/01/2018 16:30,6.51,-0.7
08/01/2018 16:45,6.47,-0.78
08/01/2018 17:00,6.33,-0.9
08/01/2018 17:15,5.99,-1.18
08/01/2018 17:30,5.99,-1.15
08/01/2018 17:45,5.66,-1.36
08/01/2018 18:00,5.5,-1.31
08/01/2018 18:15,5.47,-1.43
08/01/2018 18:30,5.57,-1.43
08/01/2018 18:45,5.19,-1.53
08/01/2018 19:00,5.16,-1.55
08/01/2018 19:15,5.26,-1.55
08/01/2018 19:30,5.29,-1.51
08/01/2018 19:45,5.34,-1.47
08/01/2018 20:00,5.29,-1.43
08/01/2018 20:15,5.24,-1.47
08/01/2018 20:30,5.27,-1.53
08/01/2018 20:45,5.01,-1.67
08/01/2018 21:00,5.22,-1.64
08/01/2018 21:15,5.75,-1.45
08/01/2018 21:30,6.37,-1.25
08/01/2018 21:45,6.48,-1.28
08/01/2018 22:00,6.56,-1.24
08/01/2018 22:15,6.36,-1.32
08/01/2018 22:30,6.32,-1.37
08/01/2018 22:45,6.39,-1.21
08/01/2018 23:00,6.33,-1.27
08/01/2018 23:15,6.19,-1.32
08/01/2018 23:30,5.79,-1.88
08/01/2018 23:45,5.31,-2.16
09/01/2018 00:00,4.92,-2.6
09/01/2018 00:15,4.68,-2.79
09/01/2018 00:30,4.9,-2.66
09/01/2018 00:45,5.15,-2.54
09/01/2018 01:00,5.43,-2.11
09/01/2018 01:15,5.73,-1.98
09/01/2018 01:30,5.7,-1.97
09/01/2018 01:45,5.55,-2.03
09/01/2018 02:00,5.6,-1.98
09/01/2018 02:15,5.65,-2.02
09/01/2018 02:30,5.57,-2.05
09/01/2018 02:45,5.63,-2.01
09/01/2018 03:00,5.59,-1.98
09/01/2018 03:15,5.52,-1.99
09/01/2018 03:30,5.48,-2.04
09/01/2018 03:45,5.55,-2.11
09/01/2018 04:00,5.31,-2.26
09/01/2018 04:15,5.34,-2.17
09/01/2018 04:30,5.54,-2.03
09/01/2018 04:45,5.41,-2.19
09/01/2018 05:00,5.17,-2.26
09/01/2018 05:15,5.08,-2.25
09/01/2018 05:30,4.98,-2.25
09/01/2018 05:45,5.05,-2.22
09/01/2018 06:00,4.98,-2.16
09/01/2018 06:15,5.24,-2.15
09/01/2018 06:30,5.24,-2.18
09/01/2018 06:45,5.6,-2.03
09/01/2018 07:00,5.51,-2
09/01/2018 07:15,5.53,-1.97
09/01/2018 07:30,5.72,-1.86
09/01/2018 07:45,5.85,-1.75
09/01/2018 08:00,5.87,-1.53
09/01/2018 08:15,5.92,-1.53
09/01/2018 08:30,6.06,-1.24
09/01/2018 08:45,6.9,-1.48
09/01/2018 09:00,7.72,-0.92
09/01/2018 09:15,7.45,-0.83
09/01/2018 09:30,7.19,-0.73
09/01/2018 09:45,7.28,-0.63
09/01/2018 10:00,7.26,-0.69
09/01/2018 10:15,6.9,-0.94
09/01/2018 10:30,6.83,-1.12
09/01/2018 10:45,6.84,-1.04
09/01/2018 11:00,6.74,-1.21
09/01/2018 11:15,6.65,-1.15
09/01/2018 11:30,6.64,-1.1
09/01/2018 11:45,6.95,-1.03
09/01/2018 12:00,7.25,-1.02
09/01/2018 12:15,6.96,-1.13
09/01/2018 12:30,6.59,-1.17
09/01/2018 12:45,6.81,-1.19
09/01/2018 13:00,7.05,-1.22
09/01/2018 13:15,6.87,-1.38
09/01/2018 13:30,6.81,-1.5
09/01/2018 13:45,6.53,-1.21
09/01/2018 14:00,6.34,-0.93
09/01/2018 14:15,5.96,-0.97
09/01/2018 14:30,6.07,-0.96
09/01/2018 14:45,6.03,-0.84
09/01/2018 15:00,5.81,-1
09/01/2018 15:15,5.64,-1.06
09/01/2018 15:30,5.37,-1.54
09/01/2018 15:45,5.33,-1.53
09/01/2018 16:00,5.38,-1.29
09/01/2018 16:15,5.37,-1.11
09/01/2018 16:30,5.22,-1.16
09/01/2018 16:45,5.25,-1.17